Regional Weather Roundup
Issued by NWS Kansas City/Pleasant Hill, MO

Home | Current Version | Previous Version | Graphics & Text | Print | Product List | Glossary Off
Versions: 1 2 3 4 5 6 7 8 9 10 11 12 13 14 15 16 17 18 19 20 21 22 23 24 25 26 27

000
ASUS43 KEAX 231610
RWREAX

WEATHER ROUNDUP FOR EASTERN KANSAS AND NORTHWEST MISSOURI
NATIONAL WEATHER SERVICE KANSAS CITY/PLEASANT HILL MO
1100 AM CDT SUN APR 23 2017

KSZ040-057-103>105-MOZ028-029-037-043-231700-
...KANSAS CITY METROPOLITAN AREA...

CITY           SKY/WX    TMP DP  RH WIND       PRES   REMARKS
K.C. INTL      MOSUNNY   62  30  29 NE6       30.18S
K.C. DOWNTOWN  SUNNY     62  35  36 VRB5      30.17S
LEES SUMMIT    SUNNY     61  34  36 N6        30.18S
OLATHE - IXD   SUNNY     60  32  34 NW6       30.18S
OLATHE - OJC   SUNNY     60  32  34 SE3       30.17F
LAWRENCE       SUNNY     62  35  36 W6        30.18F

$$

MOZ001>008-011>017-020>025-030>033-038>040-044>046-053-054-231700-
...NORTHERN AND CENTRAL MISSOURI...

CITY           SKY/WX    TMP DP  RH WIND       PRES   REMARKS
ST. JOSEPH     SUNNY     62  33  33 S6        30.17F
MOSBY          SUNNY     63  28  27 NE5       30.17F
WHITEMAN AFB   SUNNY     61  32  33 NE9       30.15S
CLINTON        SUNNY     59  34  38 NE12      30.16S
SEDALIA        NOT AVBL
WARSAW         NOT AVBL
CHILLICOTHE      N/A     63  32  31 SE3       30.17F
KIRKSVILLE     SUNNY     63  33  32 NE6       30.15F

$$

MOZ041-047>049-056>058-063>065-088>090-097-231700-
...EASTERN AND SOUTHERN MISSOURI...

CITY           SKY/WX    TMP DP  RH WIND       PRES   REMARKS
ST. LOUIS INTL SUNNY     63  34  33 NE10      30.11S
SPIRIT OF STL  SUNNY     62  35  36 NE15      30.10F
COLUMBIA       SUNNY     62  34  35 NE12      30.14S
JEFFERSON CITY SUNNY     63  30  28 N10       30.14S
ROLLA          SUNNY     59  36  42 NE10      30.10F
OSAGE BEACH    SUNNY     59  34  39 NE14      30.14F
SPRINGFIELD    SUNNY     59  38  45 NE12      30.13R
BRANSON        SUNNY     55  39  54 N8        30.12S
JOPLIN         SUNNY     59  39  47 NE9       30.15F
WEST PLAINS    SUNNY     60  39  45 N17G23    30.08S

$$

IAZ060-094-KSZ022-034>040-054-083-096-NEZ052-066-093-231700-
...KANSAS...SOUTHEAST NEBRASKA AND IOWA...

CITY           SKY/WX    TMP DP  RH WIND       PRES   REMARKS
TOPEKA         SUNNY     62  33  33 VRB3      30.18F
MANHATTAN      SUNNY     61  32  33 W3        30.19S
EMPORIA        SUNNY     59  34  39 VRB5      30.19S
CHANUTE        SUNNY     61  37  41 CALM      30.18S
WICHITA        MOSUNNY   60  29  30 N3        30.20S
OMAHA          MOSUNNY   64  29  26 SW10      30.14F
LINCOLN        SUNNY     64  30  27 S12       30.15F
FALLS CITY     SUNNY     62  35  36 VRB5      30.16F
LAMONI         SUNNY     63  33  32 NW7       30.15F
DES MOINES     MOSUNNY   66  31  27 VRB3      30.14F

$$





USA.gov is the U.S. government's official web portal to all federal, state and local government web resources and services.